Change the Weather History Date:

Sunday, October 13, 2013

  Actual Average (KBOI) Record (KBOI)
Temperature  
Mean Temperature 50 °F 54 °F  
Max Temperature 62 °F 67 °F 88 °F (1950)
Min Temperature 39 °F 42 °F 20 °F (1985)
Degree Days  
Heating Degree Days 14 11  
Month to date heating degree days 117  
Since 1 July heating degree days 238  
Cooling Degree Days 0 0  
Month to date cooling degree days 7  
Year to date cooling degree days 941  
Moisture  
Dew Point 31 °F    
Average Humidity 50    
Maximum Humidity 70    
Minimum Humidity 32    
Precipitation  
Precipitation 0.00 in 0.02 in 0.51 in (1884)
Month to date precipitation 0.27  
Year to date precipitation 8.35  
Snow  
Snow 0.00 in 0.00 in 0.10 in (1966)
Month to date snowfall 0.0  
Since 1 July snowfall 0.0  
Snow Depth -    
Sea Level Pressure  
Sea Level Pressure 30.06 in    
Wind  
Wind Speed 13 mph (NW)    
Max Wind Speed 18 mph    
Max Gust Speed 26 mph    
Visibility 10 miles    
Events      
T = Trace of Precipitation, MM = Missing Value Source: NWS Daily Summary

Daily Weather History Graph

Daily Weather History Graph

Search for Another Location

Airport or City:

Trip Planner

Search our weather history database for the weather conditions in past years. The results will help you decide how hot, cold, wet, or windy it might be!

Date:

Astronomy

Oct. 13, 2013 Rise Set
Actual Time 7:58 AM MDT 7:05 PM MDT
Civil Twilight 7:29 AM MDT 7:34 PM MDT
Nautical Twilight 6:56 AM MDT 8:07 PM MDT
Astronomical Twilight 6:23 AM MDT 8:41 PM MDT
Moon 4:09 PM MDT (10/13) 2:03 AM MDT (10/13)
Length of Visible Light 12h 04m
Length of Day
11h 07m
Waxing Gibbous, 70% of the Moon is Illuminated
Oct 13
Waxing Gibbous
Oct 18
Full
Oct 26
Last Quarter
Nov 3
New
Nov 9
First Quarter

Hourly Weather History & Observations

Time (MDT) Temp. Windchill Dew Point Humidity Pressure Visibility Wind Dir Wind Speed Gust Speed Precip Events Conditions
12:35 AM 46.4 °F 39.8 °F 32.0 °F 57% 29.98 in 10.0 mi WNW 16.1 mph 21.9 mph N/A   Overcast
12:55 AM 46.4 °F 40.1 °F 32.0 °F 57% 29.98 in 10.0 mi NW 15.0 mph 20.7 mph N/A   Overcast
1:15 AM 46.4 °F 40.7 °F 32.0 °F 57% 29.98 in 10.0 mi NW 12.7 mph 20.7 mph N/A   Mostly Cloudy
1:35 AM 46.4 °F 41.1 °F 30.2 °F 53% 29.99 in 10.0 mi NW 11.5 mph - N/A   Partly Cloudy
1:55 AM 44.6 °F 38.8 °F 30.2 °F 57% 29.99 in 10.0 mi NW 11.5 mph - N/A   Clear
2:15 AM 44.6 °F 38.4 °F 30.2 °F 57% 29.99 in 10.0 mi WNW 12.7 mph - N/A   Clear
2:35 AM 44.6 °F 38.8 °F 30.2 °F 57% 29.99 in 10.0 mi WNW 11.5 mph - N/A   Clear
2:55 AM 44.6 °F 38.8 °F 30.2 °F 57% 29.99 in 10.0 mi WNW 11.5 mph - N/A   Clear
3:15 AM 44.6 °F 39.2 °F 30.2 °F 57% 30.00 in 10.0 mi WNW 10.4 mph - N/A   Clear
3:35 AM 42.8 °F 37.0 °F 30.2 °F 61% 30.00 in 10.0 mi WNW 10.4 mph - N/A   Clear
3:55 AM 42.8 °F 37.0 °F 30.2 °F 61% 30.00 in 10.0 mi WNW 10.4 mph - N/A   Clear
4:15 AM 42.8 °F 37.5 °F 30.2 °F 61% 30.00 in 10.0 mi NW 9.2 mph - N/A   Clear
4:35 AM 41.0 °F 37.1 °F 30.2 °F 65% 30.01 in 10.0 mi NW 5.8 mph - N/A   Clear
4:55 AM 41.0 °F 36.4 °F 30.2 °F 65% 30.01 in 10.0 mi WNW 6.9 mph - N/A   Scattered Clouds
5:15 AM 41.0 °F 36.4 °F 30.2 °F 65% 30.02 in 10.0 mi WNW 6.9 mph - N/A   Scattered Clouds
5:35 AM 41.0 °F 35.8 °F 30.2 °F 65% 30.02 in 10.0 mi WNW 8.1 mph - N/A   Mostly Cloudy
5:55 AM 41.0 °F 35.2 °F 30.2 °F 65% 30.02 in 10.0 mi WNW 9.2 mph - N/A   Partly Cloudy
6:15 AM 41.0 °F 35.8 °F 30.2 °F 65% 30.03 in 10.0 mi WNW 8.1 mph - N/A   Clear
6:35 AM 41.0 °F 35.2 °F 30.2 °F 65% 30.03 in 10.0 mi WNW 9.2 mph - N/A   Clear
6:55 AM 41.0 °F 35.2 °F 30.2 °F 65% 30.04 in 10.0 mi WNW 9.2 mph - N/A   Clear
7:15 AM 39.2 °F 33.6 °F 28.4 °F 65% 30.04 in 10.0 mi NW 8.1 mph - N/A   Clear
7:35 AM 39.2 °F 33.6 °F 30.2 °F 70% 30.05 in 10.0 mi WNW 8.1 mph - N/A   Scattered Clouds
7:55 AM 39.2 °F 33.6 °F 30.2 °F 70% 30.05 in 10.0 mi WNW 8.1 mph - N/A   Scattered Clouds
8:15 AM 39.2 °F 34.2 °F 28.4 °F 65% 30.06 in 10.0 mi WNW 6.9 mph - N/A   Clear
8:35 AM 39.2 °F 34.2 °F 28.4 °F 65% 30.06 in 10.0 mi WNW 6.9 mph - N/A   Clear
8:55 AM 41.0 °F 36.4 °F 30.2 °F 65% 30.07 in 10.0 mi WNW 6.9 mph - N/A   Clear
9:15 AM 42.8 °F 38.6 °F 30.2 °F 61% 30.08 in 10.0 mi WNW 6.9 mph - N/A   Clear
9:35 AM 44.6 °F 38.8 °F 30.2 °F 57% 30.08 in 10.0 mi WNW 11.5 mph - N/A   Clear
9:55 AM 46.4 °F 40.4 °F 32.0 °F 57% 30.08 in 10.0 mi NW 13.8 mph - N/A   Clear
10:15 AM 48.2 °F - 33.8 °F 58% 30.09 in 10.0 mi NW 15.0 mph 21.9 mph N/A   Clear
10:35 AM 50.0 °F - 33.8 °F 54% 30.09 in 10.0 mi WNW 17.3 mph - N/A   Clear
10:55 AM 51.8 °F - 33.8 °F 50% 30.08 in 10.0 mi NW 16.1 mph 23.0 mph N/A   Clear
11:15 AM 51.8 °F - 33.8 °F 50% 30.08 in 10.0 mi WNW 15.0 mph 20.7 mph N/A   Clear
11:35 AM 53.6 °F - 33.8 °F 47% 30.08 in 10.0 mi WNW 18.4 mph 25.3 mph N/A   Clear
11:55 AM 55.4 °F - 33.8 °F 44% 30.07 in 10.0 mi NW 17.3 mph 24.2 mph N/A   Clear
12:15 PM 55.4 °F - 33.8 °F 44% 30.07 in 10.0 mi NW 18.4 mph - N/A   Clear
12:35 PM 57.2 °F - 33.8 °F 41% 30.07 in 10.0 mi NNW 15.0 mph 20.7 mph N/A   Clear
12:55 PM 57.2 °F - 33.8 °F 41% 30.07 in 10.0 mi NW 16.1 mph 21.9 mph N/A   Clear
1:15 PM 57.2 °F - 33.8 °F 41% 30.06 in 10.0 mi NNW 16.1 mph - N/A   Clear
1:35 PM 59.0 °F - 33.8 °F 39% 30.06 in 10.0 mi NW 16.1 mph 19.6 mph N/A   Clear
1:55 PM 59.0 °F - 33.8 °F 39% 30.05 in 10.0 mi NNW 13.8 mph 20.7 mph N/A   Clear
2:15 PM 60.8 °F - 33.8 °F 36% 30.05 in 10.0 mi NNW 13.8 mph 18.4 mph N/A   Clear
2:35 PM 60.8 °F - 33.8 °F 36% 30.04 in 10.0 mi NW 16.1 mph 25.3 mph N/A   Clear
2:55 PM 62.6 °F - 33.8 °F 34% 30.04 in 10.0 mi NNW 11.5 mph 19.6 mph N/A   Clear
3:15 PM 62.6 °F - 33.8 °F 34% 30.04 in 10.0 mi NW 11.5 mph 18.4 mph N/A   Clear
3:35 PM 62.6 °F - 33.8 °F 34% 30.03 in 10.0 mi WNW 18.4 mph 24.2 mph N/A   Clear
3:55 PM 62.6 °F - 33.8 °F 34% 30.04 in 10.0 mi NW 15.0 mph 21.9 mph N/A   Clear
4:15 PM 62.6 °F - 33.8 °F 34% 30.04 in 10.0 mi WNW 16.1 mph - N/A   Clear
4:35 PM 62.6 °F - 33.8 °F 34% 30.04 in 10.0 mi NW 17.3 mph 20.7 mph N/A   Clear
4:55 PM 62.6 °F - 33.8 °F 34% 30.04 in 10.0 mi NW 17.3 mph 24.2 mph N/A   Clear
5:15 PM 62.6 °F - 32.0 °F 32% 30.05 in 10.0 mi NW 18.4 mph 24.2 mph N/A   Clear
5:35 PM 60.8 °F - 32.0 °F 34% 30.05 in 10.0 mi NW 13.8 mph 21.9 mph N/A   Clear
5:55 PM 60.8 °F - 32.0 °F 34% 30.06 in 10.0 mi NW 18.4 mph 26.5 mph N/A   Clear
6:15 PM 59.0 °F - 32.0 °F 36% 30.07 in 10.0 mi NNW 15.0 mph 24.2 mph N/A   Clear
6:35 PM 57.2 °F - 30.2 °F 36% 30.08 in 10.0 mi NW 18.4 mph - N/A   Clear
6:55 PM 57.2 °F - 30.2 °F 36% 30.09 in 10.0 mi NW 16.1 mph 24.2 mph N/A   Clear
7:15 PM 55.4 °F - 30.2 °F 38% 30.10 in 10.0 mi NW 16.1 mph - N/A   Clear
7:35 PM 53.6 °F - 28.4 °F 38% 30.10 in 10.0 mi NW 13.8 mph - N/A   Clear
7:55 PM 53.6 °F - 28.4 °F 38% 30.11 in 10.0 mi NW 11.5 mph - N/A   Clear
8:15 PM 53.6 °F - 28.4 °F 38% 30.12 in 10.0 mi NW 11.5 mph - N/A   Clear
8:35 PM 51.8 °F - 28.4 °F 41% 30.12 in 10.0 mi WNW 11.5 mph - N/A   Clear
8:55 PM 50.0 °F - 28.4 °F 43% 30.13 in 10.0 mi NW 11.5 mph - N/A   Clear
9:15 PM 50.0 °F - 28.4 °F 43% 30.13 in 10.0 mi NW 11.5 mph - N/A   Clear
9:35 PM 48.2 °F - 28.4 °F 46% 30.13 in 10.0 mi NW 11.5 mph - N/A   Clear
9:55 PM 48.2 °F - 28.4 °F 46% 30.14 in 10.0 mi NW 11.5 mph - N/A   Clear
10:15 PM 48.2 °F - 28.4 °F 46% 30.14 in 10.0 mi NW 11.5 mph - N/A   Clear
10:35 PM 48.2 °F - 30.2 °F 50% 30.15 in 10.0 mi WNW 12.7 mph - N/A   Clear
10:55 PM 46.4 °F 41.1 °F 30.2 °F 53% 30.16 in 10.0 mi WNW 11.5 mph - N/A   Clear
11:15 PM 46.4 °F 41.5 °F 30.2 °F 53% 30.16 in 10.0 mi WNW 10.4 mph - N/A   Clear
11:55 PM 44.6 °F 38.8 °F 28.4 °F 53% 30.17 in 10.0 mi WNW 11.5 mph - N/A   Clear